sat.trackr.live / text

‹ back to catalog

GLOBAL-4

NORAD 44499 · 2019-054E

PAYLOAD ACTIVE UNKNOWN

§ Identity

Operator
Country
US
Launch date
2019-08-19
Launch site
RLLB
Launch vehicle
Mass (kg)
RCS (m²)

External: N2YO · Heavens-Above · Gunter

§ Orbital elements

Epoch: 2026-09-19T09:47:07.024416Z

Period
91.41 min
Inclination
45.0034°
Eccentricity
0.0008449
Mean motion
15.75382191 rev/d
Perigee alt
337.9 km
Apogee alt
349.2 km
Semi-major
6,721.7 km
B*
4.8886e-4
RAAN
48.6656°
Arg perigee
287.9895°
Mean anomaly
72.0085°
Rev number
39,516

§ Raw data

GLOBAL-41 44499U 19054E   26262.40772019  .00076371  00000+0  48886-3 0  99972 44499  45.0034  48.6656 0008449 287.9895  72.0085 15.75382191395164

JSON: /api/v1/satellites/44499 · /tle

For live sub-satellite position, see the globe view (requires WebGL).

§ Visibility from observer

Set your observer location to see the next 7 days of passes ≥ 10°. The values pass through the URL so the page stays shareable.

No JS? Fill the form by hand. The geolocation button needs JavaScript.

§ Radio — SatNOGS DB

ModeDescriptionDownlinkUplink
FM Downlink 401.500 MHz

1 transmitter · refreshed weekly from db.satnogs.org